Flag for Taiwan Weather past 2 weeks in Taichung, Taiwan

Now
63 °F

Partly cloudy.


Feels Like: 63 °F
Forecast: 62 / 72 °F
Wind: 14 mph from North

Location: Chiang Kai Shek

Current Time: Jan 30, 2015 at 1:11:29 AM

Latest Report: Jan 30, 2015 at 12:00 AM


Visibility: N/A

Pressure: 30.12 "Hg

Humidity: 88%

Dew point: 59 °F

Location of TaichungLocation

Historic Weather in Taichung — Graph

°F

Taichung temperature yesterday

Maximum temperature yesterday: 70 °F (at 12:00 PM)
Minimum temperature yesterday: 59 °F (at 12:00 AM)
Average temperature yesterday: 63 °F

Past Weeks' High & Low Weather Summary

 TemperatureHumidityPressure
High72 °F (Jan 20, 11:00 AM)94% (Jan 21, 3:30 AM)30.36 "Hg (Jan 21, 3:30 AM)
Low46 °F (Jan 24, 6:30 AM)35% (Jan 23, 11:30 AM)30.01 "Hg (Jan 27, 2:30 PM)
Average61 °F70%30.16 "Hg
* Reported Midnight between Jan 14 and Jan 15 — Midnight between Jan 29 and Jan 30, Taichung, Weather by CustomWeather, © 2014

Note: Actual official high and low records may vary slightly from our data, if they occured in-between our weather recording intervals... More about our weather records

Advertising

Taichung weather history for previous 24 hours

 ConditionsComfort  
Time TempWeatherWind HumidityBarometerVisibility
12:00 AM
Jan 30
63 °FPartly cloudy.14 mph88%30.12 "HgN/A
11:30 PM
Jan 29
63 °FPartly cloudy.14 mph88%30.12 "HgN/A
11:00 PM63 °FPassing clouds.16 mph88%30.12 "HgN/A
10:30 PM63 °FPassing clouds.13 mph88%30.12 "HgN/A
10:00 PM63 °FPassing clouds.10 mph88%30.12 "HgN/A
9:30 PM63 °FPassing clouds.10 mph88%30.09 "HgN/A
9:00 PM63 °FPassing clouds.10 mph88%30.09 "HgN/A
8:30 PM63 °FPartly cloudy.12 mph88%30.09 "HgN/A
8:00 PM64 °FPartly cloudy.10 mph88%30.09 "HgN/A
7:30 PM64 °FPartly cloudy.10 mph88%30.09 "HgN/A
7:00 PM64 °FPartly cloudy.10 mph88%30.09 "HgN/A
6:30 PM64 °FPartly cloudy.12 mph88%30.09 "HgN/A
6:00 PM64 °FPassing clouds.13 mph83%30.09 "HgN/A
5:30 PM64 °FPartly sunny.14 mph83%30.07 "HgN/A
5:00 PM64 °FPartly sunny.15 mph83%30.07 "HgN/A
4:30 PM64 °FPartly sunny.15 mph83%30.07 "HgN/A
4:00 PM66 °FPartly sunny.16 mph78%30.04 "HgN/A
3:30 PM66 °FPartly sunny.20 mph78%30.04 "HgN/A
3:00 PM68 °FPartly sunny.17 mph73%30.04 "HgN/A
2:30 PM68 °FPartly sunny.17 mph73%30.04 "HgN/A
2:00 PM70 °FPartly sunny.20 mph69%30.04 "HgN/A
1:30 PM68 °FPartly sunny.21 mph73%30.04 "HgN/A
1:00 PM68 °FPartly sunny.18 mph73%30.07 "HgN/A
12:30 PM70 °FPartly sunny.16 mph69%30.07 "HgN/A
12:00 PM70 °FPartly sunny.18 mph69%30.09 "HgN/A
11:30 AM68 °FPartly sunny.16 mph69%30.09 "HgN/A
11:00 AM68 °FBroken clouds.15 mph73%30.09 "HgN/A
10:30 AM66 °FPartly sunny.18 mph73%30.12 "HgN/A
10:00 AM66 °FPartly sunny.21 mph73%30.12 "HgN/A
9:30 AM66 °FPartly sunny.18 mph73%30.12 "HgN/A
9:00 AM66 °FBroken clouds.17 mph73%30.12 "HgN/A
8:30 AM63 °FBroken clouds.12 mph77%30.12 "HgN/A
8:00 AM63 °FBroken clouds.9 mph77%30.12 "HgN/A
7:30 AM59 °FBroken clouds.7 mph88%30.12 "HgN/A
7:00 AM59 °FPartly sunny.9 mph82%30.12 "HgN/A
6:30 AM59 °FPassing clouds.12 mph82%30.12 "HgN/A
6:00 AM59 °FPassing clouds.9 mph88%30.12 "HgN/A
5:30 AM59 °FPartly cloudy.12 mph82%30.09 "HgN/A
5:00 AM59 °FPartly cloudy.14 mph88%30.12 "HgN/A
4:48 AM59 °FPartly cloudy.15 mph88%30.12 "HgN/A
4:30 AM59 °FPartly cloudy.17 mph88%30.09 "HgN/A
4:00 AM59 °FPartly cloudy.20 mph88%30.12 "HgN/A
3:30 AM59 °FPartly cloudy.23 mph88%30.12 "HgN/A
3:00 AM59 °FPartly cloudy.22 mph82%30.12 "HgN/A
2:30 AM59 °FPartly cloudy.24 mph82%30.12 "HgN/A
2:00 AM59 °FPartly cloudy.22 mph88%30.12 "HgN/A
1:30 AM59 °FPartly cloudy.23 mph82%30.12 "HgN/A
1:00 AM59 °FPassing clouds.22 mph88%30.12 "HgN/A
Weather by CustomWeather, © 2014

See weather overviewHow to use our weather pages